Temp
2 2 2 2 1 2 2 3 3 3 3 3 3 2 2 2 1 1 1 1 1 1 1 1 1 1 1 1 1 1 1 1 1 1 1 1 1 1 0 0 0 0
2 2 1 1 1 1 2 2 2 3 2 2 2 2 2 2 1 1 1 1 1 1 1 1 1 1 1 1 0 0 0 0 0 0 0 0 0 0 0 -0 -0 -0
1 1 1 1 1 0 1 1 2 2 2 2 2 2 2 2 1 1 1 1 1 1 1 0 0 0 0 0 0 -0 -0 -0 -0 -0 -0 -0 -0 -0 -0 -0 -0 -0
1 1 0 0 -0 -0 -0 0 1 1 1 2 1 1 1 1 1 1 1 1 0 0 0 0 0 -0 -0 -0 -0 -0 -0 -1 -1 -1 -1 -1 -1 -1 -1 -1 -1 -1
1 1 1 0 -1 -1 -1 -0 0 0 1 1 1 1 1 1 1 1 0 0 0 0 -0 -0 -0 -0 -0 -1 -1 -1 -1 -1 -1 -1 -1 -1 -1 -1 -1 -1 -1 -1
1 1 1 1 -0 -1 -1 -1 -1 -0 1 1 1 1 1 1 0 0 0 0 0 -0 -0 -0 -0 -1 -1 -1 -1 -1 -1 -1 -1 -1 -1 -1 -1 -1 -1 -1 -1 -1
1 1 1 1 0 -1 -1 -1 -1 -1 0 0 0 0 0 0 0 0 0 -0 -0 -0 -0 -0 -1 -1 -1 -1 -1 -1 -1 -1 -1 -1 -1 -1 -1 -1 -1 -1 -0 -0
2 1 1 1 1 -0 -0 -0 -1 -1 -0 -0 -0 -0 -0 -0 -0 -0 -0 -0 -0 -0 -0 -1 -1 -1 -1 -1 -1 -1 -1 -1 -1 -1 -1 -1 -1 -1 -1 -1 -0 -0
2 2 2 2 1 0 -0 -0 -1 -1 -0 -0 -0 -0 -0 -0 -0 -0 -0 -0 -0 -0 -1 -1 -1 -1 -1 -1 -1 -1 -1 -1 -1 -1 -1 -1 -1 -1 -1 -1 -1 -1
3 2 2 2 2 1 0 -0 -1 -1 -1 -0 -0 -0 -0 -0 -0 -0 -0 -0 -0 -0 -1 -1 -1 -1 -1 -1 -1 -1 -0 -0 -0 -0 -1 -1 -1 -1 -1 -1 -1 -1
3 3 2 2 2 1 0 -0 -0 -0 -0 -0 -0 -1 -1 -1 -0 -0 -0 -0 -0 -1 -1 -1 -1 -1 -1 -1 -1 -1 -1 -0 -0 -0 -0 -0 -1 -1 -1 -1 -1 -1
3 3 2 1 1 1 1 0 0 0 -0 -0 -0 -1 -1 -1 -1 -1 -1 -1 -1 -1 -1 -1 -1 -1 -1 -1 -1 -1 -1 -1 -1 -0 -0 -1 -1 -1 -1 -2 -2 -2
2 2 2 1 1 1 0 0 0 0 -0 -0 -0 -1 -1 -1 -1 -1 -1 -1 -1 -1 -1 -1 -1 -1 -1 -1 -1 -1 -1 -1 -1 -0 -1 -1 -1 -1 -2 -2 -2 -2
2 2 2 1 1 0 0 0 -0 -0 -0 -0 -1 -1 -1 -1 -1 -1 -1 -2 -2 -2 -2 -2 -1 -1 -1 -1 -1 -1 -1 -1 -1 -1 -1 -1 -1 -1 -2 -2 -2 -2
2 2 2 1 1 1 1 0 -0 -0 -1 -1 -1 -1 -1 -1 -1 -1 -2 -2 -2 -2 -2 -2 -2 -1 -1 -2 -1 -2 -2 -1 -1 -1 -1 -1 -1 -1 -2 -2 -2 -2
1 2 2 2 2 1 1 0 0 -0 -1 -1 -1 -1 -1 -2 -2 -1 -2 -2 -2 -2 -2 -2 -2 -1 -2 -2 -2 -2 -2 -1 -1 -2 -2 -2 -2 -2 -1 -1 -1 -2
1 1 1 1 1 1 1 0 0 -0 -1 -1 -1 -1 -1 -2 -1 -2 -2 -2 -2 -2 -2 -2 -2 -2 -2 -2 -2 -2 -2 -2 -2 -2 -2 -2 -2 -2 -2 -1 -2 -2
0 1 1 1 1 1 1 0 -0 -0 -1 -1 -1 -1 -1 -2 -1 -2 -2 -2 -2 -2 -1 -1 -1 -2 -2 -2 -2 -2 -2 -2 -2 -2 -2 -2 -2 -2 -2 -2 -2 -2
-0 -0 0 0 0 0 1 1 0 -0 -1 -1 -1 -1 -2 -2 -1 -1 -2 -2 -2 -1 -1 -1 -1 -2 -2 -2 -2 -2 -2 -2 -2 -2 -2 -2 -2 -2 -2 -2 -2 -2
-0 -0 -0 -0 -0 -0 0 0 -0 -1 -1 -1 -1 -1 -2 -1 -1 -1 -1 -1 -1 -1 -1 -1 -2 -2 -2 -2 -2 -2 -2 -2 -2 -2 -2 -2 -2 -2 -2 -2 -2 -2
-1 -1 -1 -1 -0 -0 -0 -0 -1 -1 -1 -1 -1 -1 -1 -1 -1 -1 -1 -1 -1 -1 -2 -2 -2 -2 -2 -2 -2 -2 -2 -2 -2 -2 -2 -2 -2 -2 -2 -2 -2 -2
-1 -1 -1 -1 -1 -1 -1 -1 -1 -1 -1 -1 -1 -2 -1 -1 -1 -1 -1 -1 -1 -2 -2 -2 -2 -2 -2 -2 -2 -2 -2 -2 -2 -2 -2 -2 -2 -2 -2 -2 -2 -2
-2 -2 -2 -2 -2 -2 -1 -1 -1 -1 -1 -1 -2 -2 -2 -2 -2 -1 -1 -1 -2 -2 -2 -2 -2 -2 -2 -2 -2 -2 -2 -2 -2 -2 -3 -3 -3 -3 -3 -3 -3 -3
-2 -2 -2 -2 -2 -2 -2 -2 -2 -1 -1 -1 -2 -2 -2 -2 -2 -2 -2 -2 -2 -2 -2 -2 -2 -3 -2 -2 -2 -2 -2 -2 -3 -3 -3 -3 -3 -3 -3 -3 -3 -3
-3 -3 -3 -3 -3 -3 -3 -2 -2 -2 -1 -1 -1 -2 -2 -2 -2 -2 -2 -2 -2 -2 -2 -3 -3 -3 -3 -2 -3 -3 -3 -3 -3 -3 -3 -3 -3 -3 -3 -3 -3 -3
-4 -3 -3 -3 -3 -3 -3 -3 -3 -2 -2 -1 -1 -2 -2 -2 -2 -2 -3 -2 -2 -2 -3 -3 -3 -3 -3 -3 -3 -3 -3 -3 -3 -3 -3 -3 -3 -3 -3 -3 -3 -3
Height
3134 3134 3134 3135 3137 3139 3139 3139 3139 3138 3138 3139 3138 3138 3137 3137 3137 3136 3136 3136 3137 3137 3137 3138 3138 3138 3138 3139 3139 3140 3140 3140 3141 3142 3142 3143 3144 3145 3145 3146 3146 3147
3132 3131 3131 3131 3133 3136 3137 3137 3137 3137 3138 3138 3138 3138 3138 3137 3137 3137 3137 3137 3137 3138 3138 3138 3138 3139 3139 3139 3140 3140 3141 3141 3142 3143 3143 3144 3145 3146 3146 3147 3147 3147
3129 3129 3129 3128 3129 3132 3134 3134 3135 3137 3137 3137 3138 3138 3138 3138 3138 3138 3138 3138 3138 3139 3139 3139 3140 3140 3140 3140 3141 3141 3142 3142 3143 3144 3144 3145 3146 3147 3147 3148 3148 3148
3127 3127 3127 3126 3126 3128 3130 3132 3134 3136 3137 3137 3138 3138 3138 3138 3138 3139 3139 3139 3139 3140 3140 3140 3141 3141 3141 3141 3142 3142 3143 3143 3144 3145 3145 3146 3146 3147 3148 3148 3149 3149
3125 3125 3124 3123 3123 3124 3126 3129 3132 3135 3136 3136 3137 3138 3138 3139 3139 3139 3140 3140 3140 3140 3141 3141 3141 3141 3142 3142 3142 3143 3143 3144 3145 3145 3146 3146 3147 3148 3148 3148 3149 3149
3123 3123 3121 3120 3120 3121 3123 3126 3130 3133 3135 3135 3136 3137 3138 3139 3139 3139 3140 3140 3140 3141 3141 3141 3141 3141 3142 3142 3143 3143 3144 3144 3145 3146 3146 3147 3147 3148 3148 3148 3149 3149
3121 3121 3120 3119 3120 3120 3121 3124 3128 3131 3133 3134 3135 3136 3137 3138 3139 3139 3139 3140 3140 3140 3140 3140 3141 3141 3141 3142 3142 3143 3143 3144 3145 3145 3146 3146 3147 3147 3147 3148 3148 3148
3120 3119 3119 3120 3120 3120 3121 3124 3127 3129 3132 3133 3134 3135 3136 3137 3138 3138 3139 3139 3139 3139 3140 3140 3140 3141 3141 3141 3142 3142 3142 3143 3143 3144 3145 3145 3146 3146 3146 3147 3147 3147
3118 3118 3119 3120 3121 3121 3122 3124 3126 3128 3130 3131 3133 3134 3134 3135 3136 3137 3138 3138 3138 3139 3139 3139 3139 3140 3140 3140 3140 3141 3141 3142 3142 3143 3143 3144 3144 3145 3145 3145 3145 3145
3118 3118 3119 3120 3121 3121 3123 3124 3126 3127 3128 3130 3131 3132 3133 3134 3135 3136 3136 3137 3137 3137 3138 3138 3138 3138 3138 3138 3139 3139 3140 3140 3141 3141 3142 3142 3142 3143 3143 3143 3143 3144
3117 3117 3118 3119 3120 3121 3122 3123 3124 3126 3127 3128 3129 3130 3131 3132 3133 3134 3135 3135 3136 3136 3136 3136 3136 3136 3136 3137 3137 3138 3138 3139 3139 3140 3140 3140 3140 3141 3141 3141 3141 3142
3117 3117 3117 3118 3118 3119 3121 3122 3123 3124 3125 3126 3127 3128 3130 3130 3131 3132 3133 3134 3134 3134 3134 3134 3134 3134 3135 3135 3136 3137 3137 3138 3138 3138 3138 3138 3139 3139 3139 3139 3139 3139
3116 3116 3116 3117 3117 3118 3118 3120 3121 3122 3123 3124 3125 3126 3127 3128 3129 3130 3130 3131 3132 3132 3132 3132 3132 3132 3133 3134 3134 3135 3135 3136 3136 3137 3137 3137 3137 3137 3137 3137 3137 3137
3114 3115 3115 3115 3116 3116 3117 3117 3118 3119 3120 3122 3123 3124 3125 3126 3127 3128 3128 3128 3129 3129 3130 3130 3130 3131 3131 3132 3132 3133 3133 3134 3135 3135 3136 3136 3136 3136 3136 3136 3136 3136
3112 3112 3112 3113 3114 3115 3115 3115 3115 3116 3117 3119 3120 3121 3122 3124 3124 3125 3125 3125 3125 3125 3126 3127 3127 3128 3128 3129 3129 3130 3131 3132 3133 3133 3134 3134 3134 3134 3134 3134 3134 3134
3109 3109 3109 3111 3112 3112 3112 3112 3112 3113 3114 3115 3117 3118 3119 3119 3120 3121 3122 3122 3122 3123 3124 3123 3124 3125 3126 3126 3127 3128 3129 3130 3131 3131 3131 3132 3132 3132 3132 3132 3132 3132
3106 3106 3107 3108 3108 3108 3108 3108 3109 3109 3110 3111 3112 3112 3113 3114 3115 3118 3119 3119 3120 3121 3120 3119 3121 3123 3123 3124 3125 3126 3127 3128 3128 3129 3129 3129 3130 3130 3130 3130 3130 3130
3103 3103 3104 3105 3105 3105 3105 3104 3105 3105 3106 3107 3107 3107 3110 3113 3114 3115 3116 3116 3117 3118 3116 3115 3118 3119 3120 3121 3122 3122 3124 3125 3125 3126 3127 3127 3127 3128 3128 3128 3128 3128
3101 3101 3101 3102 3102 3102 3101 3100 3100 3101 3103 3104 3103 3104 3107 3110 3110 3111 3112 3113 3114 3114 3113 3113 3114 3115 3117 3118 3119 3120 3121 3122 3123 3124 3124 3125 3125 3125 3125 3125 3125 3125
3098 3098 3098 3099 3099 3099 3098 3097 3097 3098 3099 3100 3101 3102 3104 3105 3106 3107 3108 3109 3111 3111 3111 3111 3112 3113 3114 3115 3116 3117 3118 3119 3120 3121 3122 3123 3123 3122 3122 3122 3122 3122
3095 3095 3095 3096 3096 3096 3096 3095 3095 3096 3096 3097 3098 3100 3101 3102 3103 3104 3105 3106 3107 3108 3109 3109 3110 3111 3112 3113 3114 3115 3116 3117 3118 3119 3119 3120 3120 3120 3120 3120 3120 3119
3091 3091 3092 3092 3093 3093 3093 3093 3093 3094 3094 3094 3095 3096 3097 3098 3099 3101 3102 3103 3104 3105 3106 3107 3108 3108 3110 3111 3111 3113 3114 3115 3116 3116 3117 3117 3117 3117 3117 3117 3117 3116
3087 3088 3088 3088 3089 3089 3090 3090 3091 3091 3091 3091 3091 3092 3092 3093 3094 3097 3099 3100 3101 3102 3103 3104 3105 3106 3107 3108 3109 3110 3111 3112 3113 3113 3114 3114 3114 3114 3114 3114 3114 3113
3084 3084 3084 3084 3085 3085 3086 3087 3088 3088 3089 3088 3088 3089 3089 3089 3089 3091 3094 3096 3097 3098 3100 3101 3103 3104 3104 3105 3106 3108 3109 3109 3110 3110 3111 3111 3111 3111 3111 3111 3111 3110
3080 3081 3081 3081 3081 3081 3082 3083 3084 3085 3085 3085 3086 3087 3089 3089 3088 3089 3091 3093 3093 3093 3095 3097 3099 3100 3101 3103 3104 3105 3106 3106 3107 3107 3108 3108 3109 3109 3109 3108 3108 3107
3077 3077 3077 3077 3078 3078 3079 3080 3081 3082 3083 3083 3083 3084 3086 3087 3088 3088 3089 3090 3091 3091 3092 3094 3096 3097 3099 3100 3101 3102 3102 3103 3104 3104 3105 3105 3105 3105 3105 3105 3104 3104
Wind_Speed
19 21 23 22 17 13 12 9 6 4 3 2 1 3 5 7 9 9 8 8 8 7 8 9 10 11 11 11 11 11 11 10 10 9 9 8 7 7 6 6 5 4
18 20 22 23 21 17 15 12 8 5 4 4 3 4 7 9 11 11 11 12 12 12 13 13 14 14 14 14 14 14 14 13 12 11 11 11 10 9 9 8 7 6
19 21 22 25 26 21 18 14 11 7 5 5 6 7 9 11 13 14 14 15 15 15 15 15 15 15 15 15 15 15 14 13 12 12 12 11 10 10 9 8 7 6
18 18 16 22 28 25 24 20 14 10 7 7 8 9 11 12 13 14 15 16 16 16 16 15 15 15 14 14 14 14 13 12 11 11 11 10 9 8 7 6 5 4
14 10 9 15 20 20 27 27 17 11 10 9 10 11 12 13 13 14 14 15 15 16 15 15 14 13 13 13 12 12 11 11 10 10 10 8 7 6 5 5 4 2
8 5 9 11 8 9 21 25 19 14 13 12 13 13 13 13 13 13 14 14 15 15 14 14 13 12 12 11 11 11 10 9 8 7 6 6 5 4 3 3 2 1
5 4 7 8 6 5 12 21 21 16 15 16 16 15 14 14 14 14 14 14 15 15 14 13 12 12 11 11 11 10 9 7 5 4 3 2 1 1 1 1 1 1
5 4 6 8 10 11 16 22 21 18 18 18 17 17 16 15 15 14 14 14 14 14 13 12 12 11 11 11 11 10 10 8 7 5 4 3 3 3 4 5 5 5
6 4 6 9 10 14 19 22 21 21 21 20 19 19 18 17 16 15 15 14 14 13 12 12 12 13 13 13 13 12 11 10 8 7 6 6 6 6 7 8 8 9
8 6 6 9 10 13 18 23 24 23 23 23 22 21 20 19 18 17 17 16 15 15 15 15 15 15 16 15 14 13 12 11 9 8 7 7 7 8 9 9 10 10
9 8 6 9 12 13 17 22 25 26 26 26 24 23 22 21 20 20 19 18 18 18 18 18 18 19 19 18 16 14 13 11 10 9 8 8 9 9 10 10 11 11
11 11 8 10 15 16 17 21 25 27 29 29 27 25 23 22 22 21 21 20 20 21 21 22 22 22 22 21 18 16 15 14 12 10 10 10 9 10 10 11 11 12
13 13 12 11 15 19 21 22 24 27 30 32 30 28 27 26 25 23 22 22 22 23 24 25 26 25 25 24 20 18 17 16 14 12 11 11 10 9 10 10 10 12
16 16 16 15 15 20 23 24 26 29 32 34 33 32 30 29 29 27 25 25 26 27 28 29 29 27 27 26 23 21 20 18 14 12 12 11 10 9 9 9 9 10
18 19 20 20 18 18 20 24 27 29 33 36 36 35 33 31 32 32 30 30 31 31 32 33 33 32 30 29 28 25 22 17 14 12 13 13 11 10 10 10 10 10
20 21 23 23 21 20 21 23 24 25 30 37 39 37 36 35 36 35 35 36 36 35 36 37 37 35 31 28 28 26 22 17 14 14 14 14 13 12 12 12 13 13
21 22 23 22 22 22 23 24 24 24 25 34 42 44 42 40 39 37 38 39 36 34 38 40 36 31 26 22 21 21 21 18 16 16 16 16 15 15 15 15 15 15
21 22 22 22 22 23 25 25 26 24 21 24 34 43 43 40 36 34 35 35 28 23 25 28 25 21 19 19 18 18 18 17 16 17 17 17 16 16 16 17 18 19
19 20 21 22 22 23 24 25 24 22 19 18 21 28 31 31 28 25 26 27 22 17 16 18 18 16 17 18 18 17 17 16 16 17 17 16 17 18 18 19 20 21
17 18 19 21 22 23 24 24 23 21 20 19 19 21 23 23 21 20 21 22 20 18 17 18 18 16 17 18 18 18 18 17 17 18 17 18 18 19 20 20 21 21
17 18 19 20 21 23 25 26 24 22 21 20 21 22 23 22 20 21 22 22 20 19 19 21 19 18 19 20 20 20 19 19 19 18 18 18 19 19 20 20 22 23
19 20 20 21 21 22 24 27 28 25 22 22 22 24 25 25 24 23 22 22 21 21 23 23 21 20 21 21 21 21 20 20 19 19 19 19 19 20 21 22 24 25
21 20 21 20 20 20 23 26 29 28 26 25 25 27 29 29 27 25 23 22 22 23 24 25 23 22 23 24 23 23 21 21 20 20 20 20 20 22 23 25 26 26
22 21 22 21 20 20 22 24 27 28 27 27 26 27 29 29 27 26 24 23 24 25 27 27 26 24 25 25 25 24 23 22 21 21 21 22 22 24 25 26 27 28
23 23 22 22 21 21 21 23 25 27 28 28 27 25 24 24 23 23 24 26 28 29 29 28 27 26 27 26 25 25 24 23 23 23 23 24 25 26 27 28 29 29
24 23 23 23 23 22 22 24 26 27 28 30 29 27 25 24 23 23 24 27 28 26 26 27 28 28 28 27 26 25 25 25 25 25 25 26 27 28 30 31 31 31
Wind_Direction
265 273 273 267 257 233 214 212 208 195 173 151 142 137 134 136 137 136 137 134 126 120 113 105 100 95 91 89 86 83 80 78 77 78 79 80 83 87 89 91 95 99
268 275 275 267 256 233 211 203 197 190 165 152 148 133 132 131 130 130 128 126 122 117 112 106 101 96 92 89 86 84 82 79 77 78 80 81 82 84 86 88 91 93
272 274 274 267 256 230 205 205 207 195 166 159 155 137 133 130 126 126 124 122 120 115 111 106 101 97 92 89 87 84 82 81 79 79 80 81 83 85 86 86 87 89
294 285 271 267 265 242 211 204 205 197 178 164 156 141 135 132 128 127 125 122 120 116 112 108 104 100 96 93 91 87 85 84 83 82 83 81 81 86 88 88 87 85
326 306 267 267 274 253 225 215 207 196 183 165 156 147 141 138 134 132 129 126 123 120 117 114 110 107 105 103 100 97 94 92 88 86 84 81 81 84 85 88 94 94
356 325 281 269 267 257 236 217 194 184 182 166 159 157 150 148 145 140 138 135 134 131 129 127 125 124 122 119 115 111 108 103 98 90 85 81 80 79 75 76 81 100
358 315 279 245 195 205 217 191 172 176 181 169 164 164 161 160 157 154 153 151 150 149 147 146 146 145 142 138 134 132 130 127 125 120 113 102 75 29 356 335 318 288
343 305 256 214 178 171 179 173 169 179 182 174 172 172 172 173 171 170 170 168 168 168 165 165 164 163 162 161 160 159 159 162 167 174 186 202 226 252 264 269 273 274
325 308 258 229 196 177 176 174 176 184 184 182 182 183 184 185 185 187 187 186 187 188 184 180 178 179 182 185 187 185 182 183 187 195 210 221 231 243 253 260 265 268
310 306 271 244 223 198 187 185 185 189 193 192 191 194 196 196 198 200 201 203 205 205 203 198 192 192 198 202 203 202 201 202 204 214 228 240 248 253 258 263 267 269
293 291 275 245 234 218 202 197 195 196 199 200 200 203 205 207 209 210 212 214 215 216 216 212 206 205 212 217 216 216 218 217 220 229 242 254 262 266 267 269 272 272
276 275 267 239 230 225 216 210 207 206 206 206 207 209 213 217 217 218 222 224 223 221 219 219 218 216 220 223 222 225 228 229 231 239 250 259 267 273 277 278 278 276
267 265 259 240 227 225 224 221 220 219 215 211 211 213 218 222 223 224 229 233 236 231 225 225 224 221 224 227 224 224 229 232 236 243 252 261 268 273 278 280 279 277
267 261 256 247 233 227 227 229 230 226 219 216 217 218 221 226 227 227 229 233 238 239 235 231 228 225 226 226 224 224 226 228 235 247 256 261 265 266 268 272 272 272
268 264 258 253 246 238 235 236 237 231 220 217 219 221 223 228 230 230 231 232 234 239 241 238 234 230 225 223 223 222 221 225 235 248 256 258 259 259 263 269 270 269
270 266 261 257 252 249 246 246 248 244 228 219 219 223 225 227 230 231 233 235 235 238 245 246 242 240 236 234 232 225 221 228 238 242 248 252 255 258 262 267 270 272
274 269 265 260 255 255 256 256 257 258 244 225 220 222 225 227 230 231 234 242 246 248 251 252 252 253 248 240 235 228 225 232 236 238 244 249 253 257 259 263 269 275
277 274 271 268 264 262 262 262 261 262 260 241 228 226 228 231 236 237 239 246 250 249 247 244 242 242 234 223 219 220 222 226 229 236 245 249 253 258 262 269 276 282
275 276 276 275 271 267 268 270 268 262 261 258 242 230 226 229 234 237 239 240 234 227 226 218 207 207 210 211 213 214 218 224 230 238 247 252 259 266 272 278 283 287
266 269 273 275 273 273 274 274 270 260 255 253 244 228 221 220 224 228 229 225 220 220 217 207 200 202 207 210 214 217 222 229 236 243 250 257 265 272 277 282 285 288
263 260 260 264 267 271 274 272 266 258 253 248 240 231 224 219 217 219 220 218 220 222 215 207 205 210 215 218 222 226 230 234 239 246 255 264 271 275 278 282 284 287
266 261 255 254 258 264 269 270 265 257 251 246 238 230 226 222 220 221 222 221 222 222 218 214 213 214 218 223 228 231 236 240 245 254 263 270 275 277 280 283 285 286
264 262 261 260 262 264 267 269 265 257 252 248 239 229 225 223 221 222 224 223 223 223 220 217 217 219 223 227 232 236 241 245 251 258 265 271 275 278 281 283 284 284
258 261 266 268 269 270 271 272 269 262 256 255 252 242 230 221 216 216 219 222 224 224 220 219 220 224 227 230 234 239 244 249 255 261 266 270 273 276 279 281 282 283
259 263 266 268 270 271 271 271 270 265 259 257 258 252 239 227 219 215 217 224 225 219 215 218 224 227 229 232 236 240 245 250 255 259 264 268 271 275 278 280 281 282
264 264 265 266 268 267 266 266 265 262 258 255 253 249 241 233 226 220 218 225 228 222 216 220 226 228 230 234 237 241 246 250 254 259 264 268 273 276 278 280 281 283